AO-07 1 07530U 74089B 16126.20613584 -.00000045 00000-0 -70334-5 0 9991 2 07530 101.5708 98.0159 0012363 36.0945 34.4934 12.53621076897737 FO-29 1 24278U 96046B 16126.20788705 -.00000021 00000-0 17581-4 0 9991 2 24278 98.5848 57.0427 0349636 314.0548 43.2279 13.53067066973708 RS-22 1 27939U 03042A 16126.68693617 .00000462 00000-0 91745-4 0 9993 2 27939 97.8822 280.0148 0014471 81.3747 278.9104 14.66387743673598 HO-68 1 36122U 09072B 16126.64735795 -.00000059 00000-0 -43517-4 0 9994 2 36122 100.1474 164.2200 0008267 96.3266 263.8800 13.16333901307011 AO-73 1 39444U 13066AE 16125.71904548 .00000847 00000-0 11271-3 0 9997 2 39444 97.6851 180.9987 0059610 161.6148 198.7239 14.81004678131140 EO-79 1 40025U 14033R 16126.69406583 .00000710 00000-0 83529-4 0 9998 2 40025 97.9316 32.1600 0012048 197.7748 162.3048 14.87959189101881 XW-2A 1 40903U 15049E 16126.90732821 .00005779 00000-0 16631-3 0 9991 2 40903 97.4479 141.5520 0014044 289.4013 119.4584 15.36089191 35065 XW-2C 1 40906U 15049H 16126.88052236 .00002442 00000-0 13987-3 0 9991 2 40906 97.4542 134.8740 0015746 176.8462 300.4909 15.13453647 34603 LILACSAT-2 1 40908U 15049K 16126.72535248 .00001073 00000-0 65250-4 0 9995 2 40908 97.4603 134.6499 0016463 171.8480 276.6546 15.12455437 34568 XW-2E 1 40909U 15049L 16126.79401778 .00003289 00000-0 18260-3 0 9992 2 40909 97.4539 134.9860 0014448 179.9316 302.4808 15.14338200 34604 UO-11 1 14781U 84021B 16126.18164583 .00000273 00000-0 40146-4 0 9999 2 14781 97.7536 179.4914 0010084 95.3342 264.9023 14.82728971729883 LO-19 1 20442U 90005G 16126.74694307 .00000030 00000-0 27005-4 0 9993 2 20442 98.5416 62.2843 0010585 272.5222 87.4751 14.32813275373273 AO-27 1 22825U 93061C 16126.75196962 .00000019 00000-0 24665-4 0 9996 2 22825 98.7555 82.7458 0009570 82.7801 277.4468 14.29952487179175 IO-26 1 22826U 93061D 16126.38628159 .00000033 00000-0 30125-4 0 9998 2 22826 98.7499 82.5069 0010082 75.8743 284.3559 14.30276643179282 GO-32 1 25397U 98043D 16126.40763692 -.00000002 00000-0 17941-4 0 9992 2 25397 98.5638 72.4677 0002430 97.2422 262.9034 14.23592386925774 NO-44 1 26931U 01043C 16126.19649782 .00000003 00000-0 33036-4 0 9993 2 26931 67.0520 63.8194 0007318 264.2668 95.7599 14.30403656761995 SO-50 1 27607U 02058C 16126.79448559 .00000267 00000-0 37764-4 0 9990 2 27607 64.5562 290.3658 0072204 225.8190 133.7452 14.75137374719012 CO-55 1 27844U 03031E 16126.60020019 .00000119 00000-0 73488-4 0 9991 2 27844 98.6933 135.4971 0010968 86.8875 273.3557 14.21942600666392 CO-57 1 27848U 03031J 16125.99863832 .00000102 00000-0 66448-4 0 9994 2 27848 98.7031 134.9750 0010876 95.7782 264.4635 14.21569718666202 CO-65 1 32785U 08021C 16126.18592709 .00000633 00000-0 75442-4 0 9991 2 32785 97.6069 162.1824 0014826 80.8998 279.3895 14.87521622434238 PRISM 1 33493U 09002B 16126.76766575 .00002306 00000-0 21718-3 0 9991 2 33493 98.2230 344.8563 0015464 352.0160 8.0816 14.94834984394898 TISAT-1 1 36799U 10035E 16126.80552718 .00001159 00000-0 12693-3 0 9995 2 36799 98.0260 236.4420 0011789 219.6900 140.3455 14.89731497315111 ALMASAT-1 1 38078U 12006B 16126.22772924 .00023816 35026-5 33527-3 0 9990 2 38078 69.4471 133.2114 0393676 163.9066 197.5033 15.00644111223131 DUCHIFAT-1 1 40021U 14033M 16126.68604032 .00001137 00000-0 12613-3 0 9991 2 40021 97.9345 33.1284 0012580 196.6088 163.4718 14.89225715101939 NANOSATCBR1 1 40024U 14033Q 16126.71739052 .00000883 00000-0 10071-3 0 9992 2 40024 97.9321 32.6115 0011875 195.9467 164.1378 14.88645950101916 DTUSAT-2 1 40030U 14033W 16126.73226380 .00000719 00000-0 85219-4 0 9991 2 40030 97.9294 31.6857 0011619 190.7132 169.3839 14.87591163101860 ANTELSAT 1 40034U 14033AA 16126.78490333 .00000581 00000-0 95011-4 0 9999 2 40034 97.9094 16.1732 0059519 160.5600 199.7899 14.73344560100930 MET-2/21 1 22782U 93055A 16126.72392781 .00000006 00000-0 -84558-5 0 9990 2 22782 82.5488 346.9366 0023363 131.5991 294.6152 13.83787764145341 NOAA-15 1 25338U 98030A 16126.48351645 .00000066 00000-0 46813-4 0 9991 2 25338 98.7833 130.5473 0009724 314.7280 45.3107 14.25721876934909 NOAA-18 1 28654U 05018A 16126.48403432 .00000020 00000-0 36015-4 0 9994 2 28654 99.1979 132.3045 0015128 132.0115 228.2346 14.12282232564705 NOAA-19 1 33591U 09005A 16126.50254668 .00000090 00000-0 73950-4 0 9994 2 33591 99.0364 82.9347 0013748 343.8292 16.2439 14.12068434373114 HUBBLE 1 20580U 90037B 16126.43120896 .00000963 00000-0 49227-4 0 9999 2 20580 28.4692 181.0627 0002999 107.3344 2.2221 15.08334959228642 ISS 1 25544U 98067A 16126.85988696 .00006425 00000-0 10299-3 0 9996 2 25544 51.6430 269.1797 0001963 91.4860 4.0267 15.54455805998398 CO-58 1 28895U 05043F 16126.01333709 .00000352 00000-0 77036-4 0 9993 2 28895 97.8302 302.1284 0016851 0.5172 359.6045 14.63174382560797 CAPE1 1 31130U 07012P 16126.44728808 .00000444 00000-0 10511-3 0 9998 2 31130 98.0294 83.4955 0097553 29.8487 330.8226 14.55903798479918 AAUSAT2 1 32788U 08021F 16126.69046451 .00001329 00000-0 13253-3 0 9992 2 32788 97.6076 170.9576 0013509 57.2030 303.0489 14.93119882434852 DO-64 1 32789U 08021G 16125.85957509 .00003786 00000-0 28550-3 0 9990 2 32789 97.6074 185.8419 0014017 52.0320 308.2170 15.02973761435492 CO-66 1 32791U 08021J 16126.06774648 .00000987 00000-0 10849-3 0 9990 2 32791 97.6076 165.0846 0015139 71.9560 288.3306 14.89700961434372 RS-30 1 32953U 08025A 16126.70717237 .00000010 00000-0 -13620-7 0 9998 2 32953 82.4999 133.0706 0020367 93.9805 266.3605 12.43069025360804 JUGNU 1 37839U 11058B 16126.14052539 .00000348 00000-0 43770-4 0 9990 2 37839 19.9619 44.5578 0018826 6.3195 131.9361 14.12537865235937 SRMSAT 1 37841U 11058D 16126.38825977 .00000329 00000-0 35949-4 0 9991 2 37841 19.9720 76.3612 0011654 281.7474 157.7815 14.10537367235638 AO-71 1 37854U 11061E 16126.00525030 .00003194 00000-0 18449-3 0 9993 2 37854 101.7070 146.8121 0174140 201.2577 158.1336 15.01900813245612 HRBE 1 37855U 11061F 16126.72674093 .00002752 00000-0 15711-3 0 9995 2 37855 101.7214 145.9985 0187617 203.1028 156.1664 15.00825754245628 HORYU-2 1 38340U 12025D 16125.89222084 .00000613 00000-0 99159-4 0 9995 2 38340 98.3527 110.0645 0012430 144.5962 215.6073 14.74984222213094 RS-40 1 38735U 12041C 16126.71176837 .00000040 00000-0 21992-3 0 9990 2 38735 82.4785 218.2429 0016825 192.0784 167.9892 12.42572648171094 BEESAT-3 1 39134U 13015E 16126.69426447 .00005399 00000-0 28154-3 0 9997 2 39134 64.8701 99.6423 0007900 266.6672 93.4054 15.15697801167677 BEESAT-2 1 39136U 13015G 16126.70332970 .00005084 00000-0 28269-3 0 9996 2 39136 64.8707 105.1587 0007659 261.2737 98.8025 15.13423066167577 ZACUBE-1 1 39417U 13066B 16125.88464726 .00000665 00000-0 91280-4 0 9991 2 39417 097.6840 180.5986 0060317 162.8829 197.4437 14.80346955132365 TRITON-1 1 39427U 13066M 16126.66901132 .00000410 00000-0 74438-4 0 9990 2 39427 97.6714 162.6764 0114085 212.6988 146.7120 14.67152098131287 GOMX-1 1 39430U 13066Q 16126.72192027 .00000457 00000-0 93226-4 0 9993 2 39430 97.6735 150.8916 0150866 249.4257 109.0698 14.58560880130537 LO-74 1 39440U 13066AA 16126.14578041 .00000571 00000-0 87564-4 0 9999 2 39440 97.6779 173.4229 0081283 181.9919 178.0979 14.75112803131935 SPROUT 1 39770U 14029E 16126.31823894 .00002881 00000-0 34158-3 0 9999 2 39770 97.8693 224.0407 0008737 213.6349 146.4300 14.85271696105577 EO-80 1 40032U 14033Y 16126.68919162 .00000725 00000-0 86005-4 0 9995 2 40032 97.9303 31.6527 0011601 191.1199 168.9763 14.87523786101852 VELOX-1 1 40057U 14034E 16126.84948929 .00000880 00000-0 13349-3 0 9996 2 40057 98.1942 215.0167 0009621 285.5954 74.4181 14.76651494 99638 DAURIA DX 1 1 40071U 14037C 16126.83987442 .00000418 00000-0 61651-4 0 9994 2 40071 98.3303 216.1164 0007205 285.1408 74.9002 14.80791682 98682 UKUBE-1 1 40074U 14037F 16126.84039979 .00000938 00000-0 12257-3 0 9995 2 40074 98.3347 218.0737 0003358 294.1158 65.9711 14.83018705 98797 HODOYOSHI-1 1 40299U 14070B 16126.91048262 .00002513 00000-0 11552-3 0 9992 2 40299 97.4307 209.3458 0015514 81.0211 47.9640 15.21188972 83001 CHUBUSAT-1 1 40300U 14070C 16126.74851567 .00003076 00000-0 14637-3 0 9998 2 40300 97.4260 207.5345 0023085 87.0663 28.9906 15.19684035 82883 QSAT-EOS 1 40301U 14070D 16126.86299745 .00006018 00000-0 27252-3 0 9992 2 40301 97.4207 206.9348 0031213 86.0913 7.4160 15.20807975 82875 FIREBIRD FU3 1 40377U 15003B 16126.85579643 .00002925 00000-0 13712-3 0 9998 2 40377 99.0834 225.6721 0144115 269.4834 88.9877 15.12078912 69382 FIREBIRD FU4 1 40378U 15003C 16126.85242754 .00002847 00000-0 13345-3 0 9994 2 40378 99.0834 225.6809 0144360 269.4509 89.0174 15.12086973 69389 GRIFEX 1 40379U 15003D 16126.80658912 .00002777 00000-0 13526-3 0 9990 2 40379 99.0843 224.9095 0148060 272.8784 85.5504 15.10433229 69334 NO-84 1 40654U 15025D 16126.35140291 .00012098 00000-0 26936-3 0 01084 2 40654 054.9966 247.4867 0209666 327.4856 031.3305 15.24240489017509 NO-83 1 40655U 15025E 16126.32834344 .00018766 00000-0 38300-3 0 01199 2 40655 054.9877 242.6120 0194028 329.1650 029.7954 15.28599470017542 DEORBITSAIL 1 40719U 15032E 16126.70228836 .00001050 00000-0 16171-3 0 9999 2 40719 98.0221 18.6974 0017376 18.2051 341.9776 14.75469288 44224 NUDT-PHONESAT 1 40900U 15049B 16126.76111943 .00006227 00000-0 32245-3 0 9996 2 40900 97.4463 135.2501 0014156 198.2590 268.1442 15.16480718 34641 XW-2D 1 40907U 15049J 16126.88290691 .00002719 00000-0 15522-3 0 9995 2 40907 97.4504 134.7686 0015166 175.0681 303.0023 15.13486104 34600 XW-2F 1 40910U 15049M 16126.79778995 .00003231 00000-0 18173-3 0 9992 2 40910 97.4535 134.8284 0015995 174.7235 310.5551 15.13872539 34480 XW-2B 1 40911U 15049N 16126.88184296 .00002628 00000-0 15018-3 0 9992 2 40911 97.4550 134.9143 0014935 175.4950 301.8840 15.13471676 34502 DCBB 1 40912U 15049P 16126.85203854 .00003729 00000-0 19816-3 0 9995 2 40912 97.4533 135.5261 0016448 171.0647 310.1907 15.15791187 34543 TW-1C 1 40926U 15051B 16126.85548375 .00013652 00000-0 39452-3 0 9997 2 40926 97.2800 164.2478 0014414 193.2246 252.7627 15.35654799 34262 TW-1A 1 40928U 15051D 16126.84920451 .00006532 00000-0 20768-3 0 9996 2 40928 97.2743 163.6327 0013108 212.1330 234.1334 15.32867530 34232 IO-86 1 40931U 15052B 16126.79273980 .00000788 00000-0 20801-4 0 9999 2 40931 5.9992 257.3489 0013652 242.2527 117.6163 14.76454749 32654 GomX-3 1 40949U 98067HA 16126.85841571 .00049729 00000-0 32982-3 0 9999 2 40949 51.6345 252.8056 0003528 41.4179 318.7087 15.74973933 33386 LQSat 1 40958U 15057A 16126.85138882 .00000180 00000-0 35941-4 0 9998 2 40958 98.0160 202.2986 0016947 292.1546 67.7859 14.72854650 31151 AO-85 1 40967U 15058D 16124.23807745 .00000393 00000-0 59562-4 0 01173 2 40967 064.7795 022.1316 0208714 219.3847 139.1944 14.74952774016645 ATHENOXAT-1 1 41168U 15077C 16126.71635417 .00004776 00000-0 24702-3 0 9992 2 41168 14.9929 262.2511 0013423 133.3992 79.7672 15.09737659 21326 ChubuSat-2 1 41338U 16012B 16126.84630990 .00000957 00000-0 69539-4 0 9991 2 41338 31.0026 178.5815 0014266 347.5715 12.4607 14.99342157 11792 ChubuSat-3 1 41339U 16012C 16126.50108913 .00000909 00000-0 65292-4 0 9999 2 41339 31.0089 180.6199 0013937 349.7230 10.3119 14.99574112 11716 Horyu-4 1 41340U 16012D 16126.21773330 .00001483 00000-0 10975-3 0 9995 2 41340 31.0056 182.1505 0014550 352.8314 7.2138 14.99947371 11694 OUFTI-1 1 41458U 16025C 16126.48323082 .00003331 00000-0 18774-3 0 9992 2 41458 98.2170 134.5181 0176848 209.6380 149.5348 15.00771998 1378 e-st@r-II 1 41459U 16025D 16126.48310546 .00000014 00000-0 80506-6 0 9994 2 41459 98.2223 134.5199 0176984 209.7748 149.3986 15.00789326 1377 AAUSAT4 1 41460U 16025E 16126.88308965 .00004917 00000-0 28221-3 0 9991 2 41460 98.2185 134.9425 0176334 208.5866 150.5708 15.00817614 1434 /EX
